Home   Weather   Frankfort   Past weeks

Flag for USA Past Weather in Frankfort, Kentucky, USA — Yesterday and Last 2 Weeks

Now
42 °F

Low clouds.


Feels Like: 39 °F
Forecast: 39 / 62 °F
Wind: 5 mph from East

Location: Capital City Airport

Current Time: Jan 16, 2017 at 8:23:27 am

Latest Report: Jan 16, 2017 at 7:53 am


Visibility: 8 mi

Pressure: 30.27 "Hg

Humidity: 89%

Dew Point: 39 °F

Location of FrankfortLocation

Past Weather in Frankfort — Graph

°F

Frankfort Temperature Yesterday

Maximum temperature yesterday: 41 °F (at 11:53 pm)
Minimum temperature yesterday: 37 °F (at 4:53 am)
Average temperature yesterday: 39 °F

High & Low Weather Summary for the Past Weeks

 TemperatureHumidityPressure
High68 °F (Jan 12, 1:36 pm)93% (Jan 2, 12:53 am)30.80 "Hg (Jan 2, 12:53 am)
Low4 °F (Jan 7, 7:53 am)40% (Jan 8, 2:53 pm)29.65 "Hg (Jan 3, 3:53 pm)
Average39 °F76%30.19 "Hg
* Reported Jan 1 6:53 am — Jan 16 6:53 am, Frankfort, Weather by CustomWeather, © 2017

Note: Actual official high and low records may vary slightly from our data, if they occured in-between our weather recording intervals... More about our weather records

Advertising

Frankfort Weather History for the Previous 24 Hours

Scroll right to see more
 ConditionsComfort  
Time TempWeatherWind HumidityBarometerVisibility
6:53 am
Mon, Jan 16
42 °FLow clouds.5 mph85%30.27 "Hg8 mi
6:31 am42 °FLow clouds.3 mph89%30.26 "Hg8 mi
5:53 am42 °FLow clouds.5 mph85%30.26 "Hg8 mi
4:53 am42 °FLow clouds.6 mph85%30.25 "Hg7 mi
4:27 am41 °FLow clouds.6 mph89%30.25 "Hg8 mi
3:53 am42 °FLow clouds.5 mph85%30.27 "Hg7 mi
2:53 am41 °FLow clouds.5 mph89%30.27 "Hg8 mi
2:17 am41 °FLow clouds.6 mph89%30.26 "Hg8 mi
1:53 am41 °FLow clouds.5 mph89%30.27 "Hg9 mi
12:53 am41 °FLow clouds.3 mph89%30.28 "Hg10 mi
12:14 am41 °FLow clouds.6 mph89%30.28 "Hg9 mi
11:53 pm
Sun, Jan 15
41 °FLow clouds.3 mph86%30.30 "Hg10 mi
10:53 pm40 °FLow clouds.6 mph89%30.30 "Hg9 mi
9:53 pm40 °FFog.5 mph89%30.32 "Hg6 mi
9:15 pm40 °FFog.3 mph89%30.30 "Hg6 mi
8:41 pm40 °FFog.5 mph89%30.30 "Hg5 mi
7:53 pm40 °FFog.3 mph89%30.32 "Hg5 mi
6:53 pm40 °FLight rain. Fog.6 mph89%30.32 "Hg6 mi
6:11 pm40 °FLight rain. Fog.No wind89%30.30 "Hg6 mi
5:53 pm40 °FLight rain. Fog.3 mph89%30.32 "Hg5 mi
5:33 pm40 °FLight rain. Fog.5 mph86%30.30 "Hg3 mi
5:14 pm40 °FLight rain. Fog.5 mph86%30.30 "Hg2 mi
4:53 pm40 °FLight rain. Fog.5 mph86%30.32 "Hg2 mi
4:23 pm40 °FLight rain. Fog.3 mph86%30.30 "Hg2 mi
3:53 pm40 °FLight rain. Fog.3 mph86%30.31 "Hg2 mi
2:53 pm39 °FFog.6 mph89%30.31 "Hg3 mi
2:34 pm39 °FLight rain. Fog.5 mph89%30.31 "Hg2 mi
2:00 pm39 °FFog.5 mph89%30.31 "Hg4 mi
1:44 pm40 °FFog.6 mph86%30.31 "Hg2 mi
1:24 pm39 °FFog.5 mph89%30.32 "Hg1 mi
12:53 pm39 °FLight rain. Fog.5 mph86%30.36 "Hg2 mi
12:00 pm38 °FFog.5 mph90%30.38 "Hg3 mi
11:24 am39 °FFog.9 mph86%30.38 "Hg2 mi
10:53 am39 °FFog.6 mph86%30.41 "Hg5 mi
9:53 am39 °FLow clouds.7 mph82%30.40 "Hg6 mi
9:20 am38 °FMostly cloudy.6 mph86%30.38 "Hg7 mi
9:04 am38 °FFog.3 mph86%30.38 "Hg6 mi
8:53 am38 °FFog.7 mph86%30.39 "Hg5 mi
8:24 am38 °FFog.6 mph86%30.37 "Hg5 mi
Weather by CustomWeather, © 2017

See weather overviewHow to use our weather pages